SCP
0 0 0 0 0 0 0 0 0 0 0 0 0 0 0 0 0 0 0 0 0 0 0 0 0 0 0 0 0 0 0 0 0 0 0 0 0 0 0 0 0 0 0
0 0 0 0 0 0 0 0 0 0 0 0 0 0 0 0 0 0 0 0 0 0 0 0 0 0 0 0 0 0 0 0 0 0 0 0 0 0 0 0 0 0 0
0 0 0 0 0 0 0 0 0 0 0 0 0 0 0 0 0 0 0 0 0 0 0 0 0 0 0 0 0 0 0 0 0 0 0 0 0 0 0 0 0 0 0
0 0 0 0 0 0 0 0 0 0 0 0 0 0 0 0 0 0 0 0 0 0 0 0 0 0 0 0 0 0 0 0 0 0 0 0 0 0 0 0 0 0 0
0 0 0 0 0 0 0 0 0 0 0 0 0 0 0 0 0 0 0 0 0 0 0 0 0 0 0 0 0 0 0 0 0 0 0 0 0 0 0 0 0 0 0
0 0 0 0 0 0 0 0 0 0 0 0 0 0 0 0 0 0 0 0 0 0 0 0 0 0 0 0 0 0 0 0 0 0 0 0 0 0 0 0 0 0 0
0 0 0 0 0 0 0 0 0 0 0 0 0 0 0 0 0 0 0 0 0 0 0 0 0 0 0 0 0 0 0 0 0 0 0 0 0 0 0 0 0 0 0
0 0 0 0 0 0 0 0 0 0 0 0 0 0 0 0 0 0 0 0 0 0 0 0 0 0 0 0 0 0 0 0 0 0 0 0 0 0 0 0 0 0 0
0 0 0 0 0 0 0 0 0 0 0 0 0 0 0 0 0 0 0 0 0 0 0 0 0 0 0 0 0 0 0 0 0 0 0 0 0 0 0 0 0 0 0
0 0 0 0 0 0 0 0 0 0 0 0 0 0 0 0 0 0 0 0 0 0 0 0 0 0 0 0 0 0 0 0 0 0 0 0 0 0 0 0 0 0 0
0 0 0 0 0 0 0 0 0 0 0 0 0 0 0 0 0 0 0 0 0 0 0 0 0 0 0 0 0 0 0 0 0 0 0 0 0 0 0 0 0 0 0
0 0 0 0 0 0 0 0 0 0 0 0 0 0 0 0 0 0 0 0 0 0 0 0 0 0 0 0 0 0 0 0 0 0 0 0 0 0 0 0 0 0 0
0 0 0 0 0 0 0 0 0 0 0 0 0 0 0 0 0 0 0 0 0 0 0 0 0 0 0 0 0 0 0 0 0 0 0 0 0 0 0 0 0 0 0
0 0 0 0 0 0 0 0 0 0 0 0 0 0 0 0 0 0 0 0 0 0 0 0 0 0 0 0 0 0 0 0 0 0 0 0 0 0 0 0 0 0 0
0 0 0 0 0 0 0 0 0 0 0 0 0 0 0 0 0 0 0 0 0 0 0 0 0 0 0 0 0 0 0 0 0 0 0 0 0 0 0 0 0 0 0
0 0 0 0 0 0 0 0 0 0 0 0 0 0 0 0 0 0 0 0 0 0 0 0 0 0 0 0 0 0 0 0 0 0 0 0 0 0 0 0 0 0 0
0 0 0 0 0 0 0 0 0 0 0 0 0 0 0 0 0 0 0 0 0 0 0 0 0 0 0 0 0 0 0 0 0 0 0 0 0 0 0 0 0 0 0
0 0 0 0 0 0 0 0 0 0 0 0 0 0 0 0 0 0 0 0 0 0 0 0 0 0 0 0 0 0 0 0 0 0 0 0 0 0 0 0 0 0 0
0 0 0 0 0 0 0 0 0 0 0 0 0 0 0 0 0 0 0 0 0 0 0 0 0 0 0 0 0 0 0 0 0 0 0 0 0 0 0 0 0 0 0
0 0 0 0 0 0 0 0 0 0 0 0 0 0 0 0 0 0 0 0 0 0 0 0 0 0 0 0 0 0 0 0 0 0 0 0 0 0 0 0 0 0 0
0 0 0 0 0 0 0 0 0 0 0 0 0 0 0 0 0 0 0 0 0 0 0 0 0 0 0 0 0 0 0 0 0 0 0 0 0 0 0 0 0 0 0
0 0 0 0 0 0 0 0 0 0 0 0 0 0 0 0 0 0 0 0 0 0 0 0 0 0 0 0 0 0 0 0 0 0 0 0 0 0 0 0 0 0 0
0 0 0 0 0 0 0 0 0 0 0 0 0 0 0 0 0 0 0 0 0 0 0 0 0 0 0 0 0 0 0 0 0 0 0 0 0 0 0 0 0 0 0
0 0 0 0 0 0 0 0 0 0 0 0 0 0 0 0 0 0 0 0 0 0 0 0 0 0 0 0 0 0 0 0 0 0 0 0 0 0 0 0 0 0 0
0 0 0 0 0 0 0 0 0 0 0 0 0 0 0 0 0 0 0 0 0 0 0 0 0 0 0 0 0 0 0 0 0 0 0 0 0 0 0 0 0 0 0
0 0 0 0 0 0 0 0 0 0 0 0 0 0 0 0 0 0 0 0 0 0 0 0 0 0 0 0 0 0 0 0 0 0 0 0 0 0 0 0 0 0 0
Wind_Speed
1 1 0 0 0 1 1 1 1 1 1 1 1 2 2 3 3 3 2 7 8 8 9 9 9 9 9 9 8 9 9 10 9 8 8 8 8 7 8 7 7 6 6
1 1 0 0 0 0 1 1 1 1 0 0 1 1 2 2 2 3 2 3 6 8 9 9 10 10 10 10 9 9 9 9 8 8 8 7 7 7 8 8 8 7 6
2 1 1 0 1 1 1 1 1 1 1 1 1 1 1 2 2 2 2 2 2 5 7 8 9 9 10 10 10 10 9 8 8 8 8 7 6 6 6 6 6 6 5
2 2 1 1 1 1 1 1 1 1 1 1 1 1 1 1 1 2 1 1 1 1 3 6 6 6 8 8 8 8 8 8 7 7 7 7 7 6 6 5 5 5 4
2 2 1 1 1 1 1 1 1 1 1 1 1 1 1 1 1 2 2 2 2 1 1 2 3 3 5 7 8 8 8 8 8 8 8 8 7 6 5 5 5 5 5
2 2 1 1 1 1 1 1 1 1 1 2 2 2 2 1 1 1 1 1 1 2 1 1 1 2 3 4 5 6 7 7 7 8 8 7 7 6 5 5 4 4 3
2 2 1 1 1 1 1 2 2 2 1 2 2 1 2 2 2 1 1 0 0 1 1 1 1 1 1 2 3 4 5 6 7 6 6 6 6 6 5 4 4 4 4
2 2 2 1 1 1 1 2 2 2 1 2 2 1 0 1 2 1 1 1 0 0 0 0 0 1 1 1 1 1 2 3 4 5 5 5 5 5 4 4 4 3 3
1 1 2 1 1 2 2 2 2 3 2 1 1 2 2 2 0 1 1 1 1 1 1 0 0 0 1 1 1 1 1 1 3 4 5 6 5 5 4 4 4 3 3
1 1 2 1 1 1 1 2 2 2 3 2 1 1 1 2 2 1 1 1 2 1 1 1 1 1 0 0 1 1 1 0 1 3 4 5 5 5 5 5 5 4 4
0 1 1 1 1 1 1 1 1 2 2 2 2 2 1 1 1 2 1 0 1 1 1 1 1 1 1 1 0 1 2 2 1 1 2 2 3 5 5 6 6 5 5
0 1 1 1 1 1 1 1 2 2 2 2 2 2 2 2 2 2 2 1 1 0 1 1 1 1 1 1 1 3 3 3 2 3 3 4 4 4 4 5 5 5 6
1 2 1 1 1 1 1 1 1 1 2 2 2 2 2 2 2 3 3 2 1 0 0 1 1 1 1 1 1 4 4 5 5 5 5 5 5 5 5 5 6 6 7
2 2 2 2 2 1 1 1 1 1 1 2 2 2 1 1 2 2 3 4 2 1 1 0 1 1 2 2 3 4 4 6 6 6 7 7 7 8 8 8 8 8 9
2 3 2 2 2 1 2 2 1 1 1 1 1 1 1 1 1 2 2 3 4 2 2 1 1 1 1 2 3 3 3 6 8 8 8 8 8 8 9 10 9 9 8
2 3 3 2 2 1 1 1 1 0 1 0 1 1 1 0 1 1 2 2 2 3 2 1 1 1 2 3 4 3 4 8 9 9 9 9 9 8 8 9 9 9 8
3 4 3 3 2 2 1 1 1 1 1 0 0 1 0 1 1 1 2 2 2 2 3 2 1 2 2 3 3 4 4 4 5 8 8 8 8 7 7 8 8 8 8
4 4 4 3 3 2 2 2 1 1 1 1 0 1 0 1 1 1 2 2 2 2 4 4 2 2 2 3 4 4 3 3 3 7 8 7 7 7 7 7 7 7 7
4 4 4 3 3 2 2 2 2 1 1 1 1 1 1 1 1 1 2 2 2 3 3 5 3 2 2 3 3 3 3 2 3 4 6 6 6 6 6 6 6 6 6
5 4 4 3 3 3 2 2 2 1 1 1 1 1 1 2 2 2 3 3 3 4 4 5 4 3 2 3 3 2 2 2 2 2 3 3 4 5 5 5 5 6 5
5 4 4 3 3 3 3 3 2 2 2 1 0 1 1 2 3 3 3 4 5 4 5 4 4 3 3 3 3 2 2 2 1 1 1 1 1 1 2 3 4 4 5
4 4 4 4 4 3 4 5 4 3 2 2 1 1 1 1 2 3 4 7 7 7 7 5 4 5 5 4 4 3 3 2 2 1 2 1 1 1 1 2 3 4 4
4 4 4 4 4 4 5 5 5 3 2 2 2 1 1 1 2 2 3 5 6 6 7 6 7 6 6 7 7 5 4 3 2 2 2 1 1 2 2 2 4 5 5
4 4 4 4 4 4 5 6 6 3 2 2 2 2 2 2 2 3 4 3 3 3 5 5 5 6 6 6 7 6 5 3 2 1 2 2 1 1 1 2 4 6 6
4 4 4 4 4 4 5 6 6 3 2 2 2 1 2 2 3 5 4 4 2 1 2 3 4 4 6 9 8 6 5 4 2 2 3 2 1 1 1 2 3 5 6
4 4 4 4 4 4 5 6 6 3 3 2 2 2 3 3 4 6 5 5 4 3 2 3 3 4 5 7 10 7 6 5 3 2 4 3 2 2 2 2 2 2 4
Wind_Direction
123 109 88 68 81 90 103 106 102 96 87 104 150 162 171 177 182 184 195 205 202 204 206 207 206 208 208 208 209 212 212 214 214 213 215 217 218 217 214 212 212 213 215
147 141 126 96 98 108 103 112 132 115 80 113 116 140 158 162 174 182 191 207 208 209 214 217 216 214 214 212 214 219 216 218 219 216 217 219 221 222 221 218 219 222 222
162 159 155 174 193 142 123 104 103 112 129 107 87 99 138 146 159 172 184 194 212 219 219 223 227 226 224 223 220 220 221 221 221 219 218 218 217 219 217 218 216 216 217
167 164 166 206 172 134 139 148 140 100 85 101 107 96 107 137 156 160 169 179 183 221 236 231 231 234 232 230 222 217 216 215 215 213 213 212 212 211 208 208 212 214 216
167 158 169 194 151 138 153 172 138 139 133 120 117 95 86 134 166 166 169 180 186 198 226 258 246 241 240 241 235 226 220 217 216 214 214 212 209 202 196 204 216 217 221
168 155 164 161 141 137 140 143 141 115 132 127 96 65 51 57 95 140 191 187 184 195 198 224 255 270 260 249 247 232 222 219 219 215 214 210 208 202 200 205 208 210 211
164 154 165 144 143 157 174 153 140 124 123 124 99 64 38 52 60 50 67 96 189 203 177 209 232 246 275 274 260 242 223 220 222 215 205 205 205 201 193 194 204 213 213
175 172 165 163 156 153 151 157 155 150 165 159 137 126 52 14 30 42 57 83 31 44 81 248 244 260 274 277 322 259 230 222 225 217 208 201 201 201 195 196 201 205 204
156 149 159 161 168 171 176 185 178 172 182 193 176 162 166 198 233 20 36 55 58 49 358 340 302 261 247 273 302 309 250 236 241 230 219 211 203 197 190 181 186 186 188
151 153 155 159 166 167 184 205 183 181 173 188 195 197 183 161 164 162 31 43 53 47 12 5 10 11 27 21 43 69 83 144 253 246 228 210 194 191 183 183 188 185 175
87 160 158 155 172 184 201 199 184 186 182 186 185 173 154 135 153 167 194 164 50 27 26 34 29 19 36 49 51 88 100 102 99 159 158 150 169 183 179 175 177 179 167
249 197 167 162 174 185 202 208 199 195 198 195 197 189 178 175 179 172 182 179 185 29 36 37 36 24 27 27 84 94 101 99 96 103 106 111 119 134 146 153 155 150 142
212 220 193 184 185 194 195 190 191 207 208 207 214 212 206 201 172 162 157 158 160 154 105 48 22 22 41 40 56 83 90 91 86 92 95 97 103 109 119 128 128 125 119
210 200 187 183 179 172 161 155 176 222 208 214 223 212 207 206 181 171 164 156 156 155 153 153 51 47 55 56 58 64 84 94 91 89 91 91 90 90 93 101 106 104 104
187 174 168 162 152 144 151 148 163 218 208 218 219 203 200 212 194 188 173 167 160 171 192 170 125 75 79 74 70 67 79 91 93 89 92 95 95 94 95 98 99 99 103
167 158 157 153 150 150 143 141 159 199 158 228 208 173 193 211 188 175 171 163 161 157 157 135 112 94 97 94 85 75 82 90 87 88 90 95 98 100 100 101 101 100 104
166 165 162 156 155 158 150 143 159 150 142 125 116 160 208 188 152 153 156 150 148 136 137 118 77 88 91 97 85 81 77 74 85 91 95 97 101 104 105 104 102 102 106
169 165 158 160 169 167 153 147 162 144 144 168 164 134 139 131 115 127 143 154 155 150 142 142 120 108 96 110 99 92 87 88 88 94 99 100 102 104 105 105 104 104 104
163 159 160 171 176 169 162 165 171 160 152 154 147 157 177 139 139 143 144 146 148 140 127 138 133 114 104 112 100 89 84 76 93 98 98 99 103 106 108 109 109 108 107
164 167 171 176 178 176 170 170 170 161 147 133 147 194 196 181 181 171 154 145 138 130 128 132 132 132 123 118 123 124 106 86 89 94 89 97 105 111 116 123 125 122 119
172 171 170 172 180 182 184 181 179 174 171 171 162 253 231 201 182 178 165 158 149 142 142 142 144 145 151 157 167 155 142 127 83 116 120 105 109 113 129 146 153 148 142
172 169 177 178 186 199 192 188 178 177 179 186 202 258 278 242 196 186 176 167 162 161 165 163 167 174 180 175 161 160 150 158 178 178 158 150 153 185 194 187 176 171 168
175 177 183 185 197 207 199 193 186 175 174 187 189 202 239 231 187 175 171 170 176 177 173 173 175 186 181 180 170 171 176 177 182 164 164 176 185 208 216 209 194 192 189
178 187 193 196 198 210 195 195 187 173 176 200 204 205 217 233 197 173 165 164 176 184 190 187 192 195 185 176 176 173 164 140 104 142 175 185 192 216 228 223 214 205 201
182 188 189 195 203 217 198 192 180 172 189 225 233 219 213 219 198 173 164 170 179 204 183 163 163 164 163 163 158 144 149 159 176 189 185 189 187 203 225 232 223 212 209
190 186 195 202 205 213 202 192 181 179 195 222 236 234 219 209 192 176 178 175 189 203 169 151 148 149 158 165 170 175 173 175 175 195 183 180 175 177 213 215 218 213 211